Regional Weather Roundup
Issued by NWS Charleston, WV

Home | Current Version | Previous Version | Text Only | Print | Product List | Glossary On
Versions: 1 2 3 4 5 6 7 8 9 10 11 12 13 14 15 16 17 18 19 20 21 22 23 24 25 26 27 28 29 30 31 32 33 34 35 36 37 38 39 40 41 42 43 44 45 46 47 48 49 50
000
ASUS41 KRLX 241710
RWRRLX
West Virginia Regional Weather Roundup
National Weather Service Charleston WV
1200 PM EST MON NOV 24 2014

Note: "fair" indicates few or no clouds below 12,000 feet with no
significant weather and/or obstructions to visibility.

WVZ003-241800-
Northern Panhandle of West Virginia

CITY           SKY/WX    TMP DP  RH WIND       PRES   REMARKS
WHEELING       LGT RAIN  67  43  41 SW23G37   29.40S
$$

WVZ009-241800-
Northwest West Virginia

CITY           SKY/WX    TMP DP  RH WIND       PRES   REMARKS
PARKERSBURG    PTSUNNY   68  46  45 W16G31    29.48S
$$

WVZ006-241800-
Western West Virginia

CITY           SKY/WX    TMP DP  RH WIND       PRES   REMARKS
HUNTINGTON     CLOUDY    66  45  46 SW18G30   29.51R
$$

WVZ015-241800-
West Central West Virginia

CITY           SKY/WX    TMP DP  RH WIND       PRES   REMARKS
CHARLESTON     PTSUNNY   70  41  34 SW25G41   29.53F
$$

WVZ022-031-241800-
North Central West Virginia

CITY           SKY/WX    TMP DP  RH WIND       PRES   REMARKS
CLARKSBURG     MOSUNNY   70  43  37 SW22G51   29.49F
MORGANTOWN     PTSUNNY   70  40  33 SW21G37   29.47F
$$

WVZ025-035-042-045-241800-
Southern West Virginia

CITY           SKY/WX    TMP DP  RH WIND       PRES   REMARKS
BECKLEY        MOSUNNY   66  42  41 SW22G35   29.64F
LOGAN          CLOUDY    68  45  42 SW15G35   29.58S
BLUEFIELD      SUNNY     67  39  35 W33G41    29.69S
LEWISBURG      SUNNY     66  45  46 SW17      29.66F
$$

WVZ047-241800-
Northern Mountains of West Virginia

CITY           SKY/WX    TMP DP  RH WIND       PRES   REMARKS
ELKINS         MOSUNNY   67  41  38 SW22G36   29.57F
$$

WVZ052-241800-
Eastern Panhandle of West Virginia

CITY           SKY/WX    TMP DP  RH WIND       PRES   REMARKS
MARTINSBURG    SUNNY     67  53  61 S12G20    29.58F
PETERSBURG     SUNNY     67  47  47 S16G26    29.56F
$$


USA.gov is the U.S. government's official web portal to all federal, state and local government web resources and services.